{"data":{"norad_id":56046,"intl_designator":"2023-043A","name":"ONEWEB-0537","alt_names":[],"object_type":"PAYLOAD","status":"ACTIVE","operator":null,"country":"UK","launch_date":"2023-03-26","launch_site_code":"SRILR","launch_vehicle":null,"mission":null,"orbit_class":"UNKNOWN","rcs_meters":null,"size_class":null,"mass_kg":null,"dimensions":null,"purposes":["comms"],"wikipedia_slug":null,"has_3d_model":false,"image_url":null,"decayed_at":null,"tle_current":{"epoch":"2026-05-24T22:32:54.597120Z","epoch_age_seconds":83420,"freshness":"FRESH","line1":"1 56046U 23043A   26144.93952080  .00000070  00000+0  14991-3 0  9999","line2":"2 56046  87.9107 233.3873 0002097 106.2930 253.8431 13.16592804155908","mean_motion":13.16592804,"eccentricity":0.0002097,"inclination_deg":87.9107,"raan_deg":233.3873,"arg_perigee_deg":106.293,"mean_anomaly_deg":253.8431,"bstar":0.00014991,"rev_number":15590,"period_min":109.37322425165,"perigee_km":1196.1735748909,"apogee_km":1199.3509070326,"semimajor_km":7575.8992409617,"source":"CELESTRAK","updated_at":"2026-05-25T13:38:22.699365Z"}}}